Location: Unspecified
(48.8656°N, 0.0000°E)
Time: 17:32:08
(UTC+00:00)

SR - Pass Details

Date: 26 June 2019
Orbit: 580 x 875 km, 66.7° (Epoch: 16 July)

Event Time Altitude Azimuth Distance (km) Brightness Sun altitude
Rises 08:25:25 0° 327° (NNW) 2,928 ? 40.6°
Reaches altitude 10° 08:29:02 10° 357° (N) 2,080 ? 41.2°
Maximum altitude 08:31:02 12° 23° (NNE) 1,952 ? 41.5°
Drops below altitude 10° 08:33:06 10° 48° (NE) 2,155 ? 41.8°
Sets 08:37:00 0° 77° (ENE) 3,151 ? 42.5°
